LiveATC.Net - Listen to live air traffic control over the Internet!


ICAO: CKK7  IATA: CKK   Airport: Steinbach (South) Airport
City: Steinbach   State/Province: Manitoba
Country: Canada   Continent: North America
CYWG METAR Weather: CYWG 161300Z 06004KT 15SM SCT070 BKN110 OVC250 13/08 A2989 RMK AC3AC4CI1 SLP128 DENSITY ALT 800FT
CKK7 Flight Activity (FlightAware)
CKK7 Webcam:  (Airport Webcams) 

CKK7 CTAF
Feed Status: UP   Listeners: 0
Listen in your browser - HTML5 player (in browser, HTML5)
Click here to listen with your own player (launches your MP3 player)
FacilityFrequency
Steinbach CTAF122.700

NOTICE

Unauthorized use prohibited. See LiveATC.net Terms of Service


Find LiveATC Audio Streams


Airport/ARTCC Code

Frequency Search
(e.g., 124.400, 128.75)
Site-wide search
 


Browse LiveATC Feeds
Top 50 LiveATC Feeds
LiveATC Feed Map
Bad Weather Areas

LiveATC FAQ
Offer LiveATC feed
Contact LiveATC.net
Press Inquiries

LiveATC on iPhone
LiveATC on Android

Windows Phone
Windows 8/10

LiveATC Mobile
(Mobile browser)

ATC Audio Archives
Interesting Recordings

LiveATC Forums


Home Page
About LiveATC.net
Make a Donation
Terms of Use
Privacy Policy

Canadian Air Freqs

AIRMETs/SIGMETs

FAA Airport Status
Nat'l Airspace Status
Arrival Demand Charts


Server Software By:
Icecast.org
Liquidsoap